Meath Environmental Platform

Observations for Trim Patrick St

Time AQI Temp °C Hum % Pres Pa CO μg/m³ H₂S μg/m³ NO μg/m³ NO₂ μg/m³ O₃ μg/m³ SO₂ μg/m³ PM1 μg/m³ PM2.5 μg/m³ PM10 μg/m³
Thursday 27 August 2026
05:51 2 17.1 88 38,288 0.24 0.16 1.46 20.31 40.12 0 25.14 33.45 34.11
05:50 2 17.1 87 38,288 0.24 0 1.36 16.41 32.76 0 24.29 32.12 33.54
05:49 2 17.1 87 38,288 0.25 0.84 1.23 22.29 46.88 0 25.14 34.25 35.01
05:48 2 17.1 87 38,288 0.25 0 1.31 17.62 27.62 0 25.14 32.86 33.69
05:47 2 17.1 87 38,288 0.27 1.44 1.36 22.52 51.82 0 26.86 34.26 36.33
05:46 2 17.1 86 38,288 0.24 1.2 1.31 20.11 40.74 0 25.14 33.67 34.63
05:45 2 17 86 38,287 0.24 0.58 1.32 19.99 45.09 0 25.14 32.97 34.59
05:44 2 17 86 38,287 0.25 0.71 1.29 20.81 40.98 0 23.43 32.34 32.79
05:43 2 17 87 38,287 0.24 0.58 1.08 21.27 38.52 0 24.29 32.83 33.62
05:42 2 17 87 38,286 0.25 0.84 1.02 23.16 42.62 0 23.43 31.53 31.87
05:41 2 17 87 38,286 0.26 0.53 0.87 23.79 28.81 0 21.72 29.38 32.32
05:40 2 17 87 38,285 0.25 1.28 1.21 23.98 37.89 0 24.29 32.85 33.01
05:39 2 17 87 38,284 0.24 0.5 1.11 20.74 37.01 0 25.14 32.15 32.34
05:38 2 17 88 38,283 0.25 0.79 1.1 15.91 35.91 0 24.29 32.03 32.06
05:37 2 16.9 88 38,282 0.26 1.1 1.23 20.72 36.19 0 23.43 29.99 30.82
05:36 2 16.9 88 38,279 0.26 0.97 1.48 19.1 30.61 0 25.14 33.44 34.71
05:35 2 16.9 88 38,277 0.24 0.58 1.15 15.52 31.11 0 25.14 32.04 32.09
05:33 2 16.9 88 38,268 0.25 0.74 1.57 14.79 31.5 0 25.14 32.03 32.06
05:32 2 16.9 88 38,262 0.26 0.87 1.55 27.04 37.4 0 25.14 33.45 35.38
05:31 2 16.9 88 38,253 0.29 1.55 1.42 24.08 25.24 0 25.14 32.72 35.27